Date,TemperatureHighF,TemperatureAvgF,TemperatureLowF,DewpointHighF,DewpointAvgF,DewpointLowF,HumidityHigh,HumidityAvg,HumidityLow,PressureMaxIn,PressureMinIn,WindSpeedMaxMPH,WindSpeedAvgMPH,GustSpeedMaxMPH,PrecipitationSumIn
2013-3-16,-200,0,200,-100,-100,-100,0,0,100,30.11,30.03,29,22,0,0.00
2013-3-17,-200,0,200,-100,-100,-100,0,0,100,30.15,30.04,29,16,0,0.00
2013-3-18,51,28,47,-100,-100,-100,0,0,100,30.14,30.05,20,11,0,0.00
2013-3-19,53,52,50,-100,-100,-100,0,0,100,30.16,30.05,16,8,0,0.00
2013-3-20,55,53,51,-100,-100,-100,0,0,100,30.14,30.06,16,6,0,0.00
2013-3-21,53,50,49,-100,-100,-100,0,0,100,30.13,29.99,31,21,0,0.00
2013-3-22,52,50,49,-100,-100,-100,0,0,100,30.09,30.01,27,14,0,0.00
2013-3-23,51,50,49,-100,-100,-100,0,0,100,30.12,30.04,22,13,0,0.00
2013-3-24,50,50,48,-100,-100,-100,0,0,100,30.11,29.97,22,14,0,0.00
2013-3-25,50,49,47,-100,-100,-100,0,0,100,30.04,29.97,25,15,0,0.00
2013-3-26,52,50,49,-100,-100,-100,0,0,100,30.02,29.97,16,10,0,0.00
2013-3-27,56,52,49,-100,-100,-100,0,0,100,30.03,29.97,11,6,0,0.00
2013-3-28,55,53,52,-100,-100,-100,0,0,100,30.12,30.03,11,7,0,0.00
2013-3-29,53,52,50,-100,-100,-100,0,0,100,30.10,30.05,18,7,0,0.00
2013-3-30,56,52,51,-100,-100,-100,0,0,100,30.11,30.05,16,8,0,0.00
2013-4-4,54,53,53,-100,-100,-100,0,0,100,30.16,30.10,16,-128,0,0.00
2013-4-5,56,54,53,-100,-100,-100,0,0,100,30.21,30.14,18,-63,0,0.00
2013-4-6,56,54,53,-100,-100,-100,0,0,100,30.22,30.14,54,-97,0,0.00
2013-4-7,56,54,53,-100,-100,-100,0,0,100,30.19,29.97,18,9,0,0.00
2013-4-8,54,52,51,-100,-100,-100,0,0,100,29.99,29.86,40,30,0,0.00
2013-4-9,53,52,51,-100,-100,-100,0,0,100,30.07,30.00,27,21,0,0.00
2013-4-10,54,52,51,-100,-100,-100,0,0,100,30.16,30.03,31,15,0,0.00
2013-4-11,52,51,50,-100,-100,-100,0,0,100,30.09,29.87,31,23,0,0.00
2013-4-12,51,50,48,-100,-100,-100,0,0,100,29.95,29.85,25,17,0,0.00
2013-4-13,51,50,50,-100,-100,-100,0,0,100,29.94,29.85,36,23,0,0.00
2013-4-14,50,49,49,-100,-100,-100,0,0,100,29.95,29.87,31,21,0,0.00
2013-4-15,50,49,48,-100,-100,-100,0,0,100,29.98,29.88,34,22,0,0.00
2013-4-16,49,48,47,-100,-100,-100,0,0,100,30.12,29.96,29,16,0,0.00
2013-4-17,53,50,49,-100,-100,-100,0,0,100,30.24,30.11,20,16,0,0.00
2013-4-22,53,50,49,-100,-100,-100,0,0,100,29.98,29.91,16,8,0,0.00
2013-4-23,52,50,48,-100,-100,-100,0,0,100,29.98,29.90,16,8,0,0.00
2013-4-24,53,51,49,-100,-100,-100,0,0,100,29.97,29.86,13,7,0,0.00
2013-4-25,57,54,51,-100,-100,-100,0,0,100,30.13,29.98,11,5,0,0.00
2013-4-26,53,52,51,-100,-100,-100,0,0,100,30.24,30.12,22,11,0,0.00
2013-4-27,51,50,49,-100,-100,-100,0,0,100,30.23,30.11,22,14,0,0.00
2013-4-28,52,50,47,-100,-100,-100,0,0,100,30.10,29.91,18,10,0,0.00
2013-4-29,54,52,51,-100,-100,-100,0,0,100,29.91,29.77,27,13,0,0.00
2013-4-30,52,51,50,-100,-100,-100,0,0,100,29.86,29.79,25,18,0,0.00
2013-5-1,55,52,49,-100,-100,-100,0,0,100,30.09,29.85,18,7,0,0.00
2013-5-2,56,54,53,-100,-100,-100,0,0,100,30.14,30.07,13,8,0,0.00
2013-5-3,56,54,53,-100,-100,-100,0,0,100,30.10,29.84,16,7,0,0.00
2013-5-4,54,53,51,-100,-100,-100,0,0,100,29.84,29.63,29,14,0,0.00
2013-5-5,58,55,53,-100,-100,-100,0,0,100,29.78,29.65,29,20,0,0.00
2013-5-6,57,56,54,-100,-100,-100,0,0,100,29.96,29.78,22,12,0,0.00
2013-5-7,57,54,52,-100,-100,-100,0,0,100,30.06,29.96,13,7,0,0.00
2013-5-8,55,52,51,-100,-100,-100,0,0,100,30.17,30.06,18,10,0,0.00
2013-5-9,54,53,52,-100,-100,-100,0,0,100,30.18,30.11,25,15,0,0.00
2013-5-10,53,52,52,-100,-100,-100,0,0,100,30.20,30.11,25,15,0,0.00
2013-5-11,53,51,51,-100,-100,-100,0,0,100,30.16,30.08,18,12,0,0.00
2013-5-12,55,53,51,-100,-100,-100,0,0,100,30.17,30.02,25,13,0,0.00
2013-5-13,54,53,52,-100,-100,-100,0,0,100,30.14,29.97,31,18,0,0.00
2013-5-14,54,54,53,-100,-100,-100,0,0,100,30.07,29.98,20,14,0,0.00
2013-5-15,54,54,53,-100,-100,-100,0,0,100,30.11,30.04,29,21,0,0.00
2013-5-16,55,50,53,-100,-100,-100,0,0,100,30.07,29.99,22,14,0,0.00
2013-5-17,54,54,53,-100,-100,-100,0,0,100,30.09,30.01,29,16,0,0.00
2013-5-18,55,53,52,-100,-100,-100,0,0,100,30.16,30.09,27,17,0,0.00
2013-5-19,54,53,51,-100,-100,-100,0,0,100,30.13,29.97,25,17,0,0.00
2013-5-20,54,52,49,-100,-100,-100,0,0,100,30.03,29.92,27,15,0,0.00
2013-5-21,53,52,51,-100,-100,-100,0,0,100,30.01,29.94,34,25,0,0.00
2013-5-22,51,50,49,-100,-100,-100,0,0,100,30.01,29.93,34,24,0,0.00
2013-5-23,51,50,50,-100,-100,-100,0,0,100,30.03,29.97,27,21,0,0.00
2013-5-24,51,50,48,-100,-100,-100,0,0,100,30.06,29.97,29,17,0,0.00
2013-5-25,52,51,50,-100,-100,-100,0,0,100,30.09,30.02,29,17,0,0.00
2013-5-26,53,52,51,-100,-100,-100,0,0,100,30.17,30.09,22,11,0,0.00
2013-5-27,53,52,49,-100,-100,-100,0,0,100,30.17,30.06,18,8,0,0.00
2013-5-28,54,53,52,-100,-100,-100,0,0,100,30.07,29.91,27,11,0,0.00
2013-5-29,54,53,51,-100,-100,-100,0,0,100,29.99,29.89,31,14,0,0.00
2013-5-30,53,52,51,-100,-100,-100,0,0,100,30.02,29.94,29,20,0,0.00
2013-5-31,53,52,50,-100,-100,-100,0,0,100,30.02,29.91,27,17,0,0.00
2013-6-1,54,52,51,-100,-100,-100,0,0,100,29.96,29.78,25,16,0,0.00
2013-6-2,53,51,50,-100,-100,-100,0,0,100,29.84,29.78,25,17,0,0.00
2013-6-3,54,52,51,-100,-100,-100,0,0,100,29.89,29.80,13,8,0,0.00
2013-6-4,53,53,53,-100,-100,-100,0,0,100,29.92,29.88,4,2,0,0.00
2013-6-6,54,53,51,-100,-100,-100,0,0,100,29.98,29.92,9,-99,0,0.00
2013-6-7,53,52,51,-100,-100,-100,0,0,100,29.94,29.79,11,4,0,0.00
2013-6-8,56,54,51,-100,-100,-100,0,0,100,29.86,29.80,18,11,0,0.00
2013-6-9,56,56,55,-100,-100,-100,0,0,100,29.91,29.84,18,8,0,0.00
2013-6-10,60,57,56,-100,-100,-100,0,0,100,29.97,29.88,11,6,0,0.00
2013-6-11,57,56,55,-100,-100,-100,0,0,100,29.99,29.90,18,10,0,0.00
2013-6-12,56,55,54,-100,-100,-100,0,0,100,30.03,29.93,31,21,0,0.00
2013-6-13,55,54,52,-100,-100,-100,0,0,100,30.11,29.99,31,19,0,0.00
2013-6-14,54,53,51,-100,-100,-100,0,0,100,30.01,29.84,25,15,0,0.00
2013-6-15,53,52,51,-100,-100,-100,0,0,100,30.02,29.87,18,12,0,0.00
2013-6-16,55,53,52,-100,-100,-100,0,0,100,30.11,30.02,25,14,0,0.00
2013-6-17,56,54,53,-100,-100,-100,0,0,100,30.11,30.02,27,20,0,0.00
2013-6-18,55,54,53,-100,-100,-100,0,0,100,30.06,30.01,29,20,0,0.00
2013-6-19,54,54,53,-100,-100,-100,0,0,100,30.07,30.01,29,20,0,0.00
2013-6-20,53,52,51,-100,-100,-100,0,0,100,30.02,29.98,22,15,0,0.00
2013-6-22,56,54,51,-100,-100,-100,0,0,100,29.98,29.86,29,18,0,0.00
2013-6-23,56,55,54,-100,-100,-100,0,0,100,29.94,29.87,20,9,0,0.00
2013-6-24,56,55,54,-100,-100,-100,0,0,100,29.95,29.84,13,7,0,0.00
2013-6-25,58,57,55,-100,-100,-100,0,0,100,30.03,29.95,13,6,0,0.00
2013-6-26,59,58,56,-100,-100,-100,0,0,100,30.08,29.99,16,7,0,0.00
2013-6-27,58,57,56,-100,-100,-100,0,0,100,30.06,29.99,18,9,0,0.00
2013-6-28,57,55,54,-100,-100,-100,0,0,100,30.02,29.91,20,13,0,0.00
2013-6-29,58,56,54,-100,-100,-100,0,0,100,29.94,29.83,18,8,0,0.00
2013-6-30,57,56,54,-100,-100,-100,0,0,100,29.88,29.79,20,12,0,0.00
2013-7-1,57,55,52,-100,-100,-100,0,0,100,29.93,29.82,18,9,0,0.00
2013-7-2,56,56,54,-100,-100,-100,0,0,100,29.98,29.88,11,5,0,0.00
2013-7-3,57,56,54,-100,-100,-100,0,0,100,29.94,29.82,9,5,0,0.00
2013-7-4,58,56,54,-100,-100,-100,0,0,100,29.85,29.76,13,8,0,0.00
2013-7-5,58,56,55,-100,-100,-100,0,0,100,29.86,29.78,20,15,0,0.00
2013-7-6,56,55,54,-100,-100,-100,0,0,100,29.86,29.80,11,8,0,0.00
2013-7-7,57,56,54,-100,-100,-100,0,0,100,29.89,29.83,13,8,0,0.00
2013-7-8,56,55,54,-100,-100,-100,0,0,100,29.99,29.89,9,6,0,0.00
2013-7-9,55,54,54,-100,-100,-100,0,0,100,30.03,29.98,16,12,0,0.00
2013-7-10,57,52,53,-100,-100,-100,0,0,100,30.04,29.95,11,8,0,0.00
2013-7-11,56,55,54,-100,-100,-100,0,0,100,29.99,29.94,13,10,0,0.00
2013-7-12,55,54,53,-100,-100,-100,0,0,100,29.98,29.93,16,8,0,0.00
2013-7-13,58,54,52,-100,-100,-100,0,0,100,30.03,29.93,13,7,0,0.00
2013-7-14,56,54,52,-100,-100,-100,0,0,100,30.06,29.95,16,11,0,0.00
2013-7-15,57,55,53,-100,-100,-100,0,0,100,29.96,29.89,11,8,0,0.00
2013-7-16,59,57,55,-100,-100,-100,0,0,100,30.03,29.91,16,7,0,0.00
2013-7-17,58,57,55,-100,-100,-100,0,0,100,30.11,30.03,25,13,0,0.00
2013-7-18,55,54,52,-100,-100,-100,0,0,100,30.09,29.97,20,14,0,0.00
2013-7-19,54,53,52,-100,-100,-100,0,0,100,30.00,29.88,18,13,0,0.00
2013-7-20,54,53,53,-100,-100,-100,0,0,100,29.89,29.83,13,9,0,0.00
2013-7-21,55,54,53,-100,-100,-100,0,0,100,29.86,29.82,7,4,0,0.00
2013-7-22,57,56,56,-100,-100,-100,0,0,100,29.98,29.95,7,4,0,0.00
2013-7-23,57,56,55,-100,-100,-100,0,0,100,30.04,29.97,9,6,0,0.00
2013-7-24,56,55,54,-100,-100,-100,0,0,100,30.04,29.95,13,7,0,0.00
2013-7-25,57,55,53,-100,-100,-100,0,0,100,30.06,29.97,11,8,0,0.00
2013-7-26,57,55,54,-100,-100,-100,0,0,100,30.13,30.05,11,6,0,0.00
2013-7-27,58,56,54,-100,-100,-100,0,0,100,30.06,29.92,9,5,0,0.00
2013-7-28,57,56,55,-100,-100,-100,0,0,100,29.93,29.88,9,6,0,0.00
2013-7-29,58,57,56,-100,-100,-100,0,0,100,30.03,29.90,13,8,0,0.00
2013-7-30,59,58,57,-100,-100,-100,0,0,100,30.13,30.05,9,6,0,0.00
2013-7-31,58,56,54,-100,-100,-100,0,0,100,30.13,30.03,22,7,0,0.00
2013-8-1,58,57,56,-100,-100,-100,0,0,100,30.09,29.96,29,18,0,0.00
2013-8-2,56,55,54,-100,-100,-100,0,0,100,30.01,29.96,18,15,0,0.00
2013-8-3,57,55,54,-100,-100,-100,0,0,100,30.02,29.97,11,6,0,0.00
2013-8-4,56,55,53,-100,-100,-100,0,0,100,30.04,30.00,16,10,0,0.00
2013-8-5,56,55,54,-100,-100,-100,0,0,100,30.07,29.98,16,11,0,0.00
2013-8-6,58,56,54,-100,-100,-100,0,0,100,30.09,30.00,13,10,0,0.00
2013-8-7,60,58,57,-100,-100,-100,0,0,100,30.15,30.05,13,8,0,0.00
2013-8-8,58,56,56,-100,-100,-100,0,0,100,30.06,30.02,9,6,0,0.00
2013-8-9,59,58,56,-100,-100,-100,0,0,100,30.01,29.95,13,9,0,0.00
2013-8-10,58,57,56,-100,-100,-100,0,0,100,30.06,30.01,20,13,0,0.00
2013-8-11,56,56,56,-100,-100,-100,0,0,100,30.05,30.01,18,12,0,0.00
2013-9-18,56,56,56,-100,-100,-100,0,0,100,29.84,29.84,11,11,0,0.00
2013-9-19,59,56,52,-100,-100,-100,0,0,100,29.85,29.72,22,11,0,0.00
2013-9-20,59,57,54,-100,-100,-100,0,0,100,29.88,29.77,16,8,0,0.00
2013-9-21,60,56,58,-100,-100,-100,0,0,100,29.90,29.82,18,12,0,0.00
2013-9-22,61,58,54,-100,-100,-100,0,0,100,29.99,29.90,22,11,0,0.00
2013-9-23,62,59,57,-100,-100,-100,0,0,100,29.99,29.88,20,11,0,0.00
2013-9-24,61,60,58,-100,-100,-100,0,0,100,29.99,29.90,22,15,0,0.00
2013-9-25,58,58,57,-100,-100,-100,0,0,100,29.94,29.82,22,19,0,0.00
2013-9-26,57,55,54,-100,-100,-100,0,0,100,29.91,29.82,22,9,0,0.00
2013-9-27,60,57,54,-100,-100,-100,0,0,100,30.08,29.99,18,11,0,0.00
2013-9-28,58,53,54,-100,-100,-100,0,0,100,30.06,29.97,18,11,0,0.00
2013-9-29,59,57,55,-100,-100,-100,0,0,100,30.10,30.03,13,7,0,0.00
2013-9-30,60,57,55,-100,-100,-100,0,0,100,30.09,29.94,18,8,0,0.00
2013-10-1,57,56,56,-100,-100,-100,0,0,100,0.00,40.00,20,17,0,0.00
2013-10-2,56,55,54,-100,-100,-100,0,0,100,0.00,40.00,27,15,0,0.00
2013-10-3,56,54,53,-100,-100,-100,0,0,100,0.00,40.00,22,12,0,0.00
2013-10-4,64,57,54,-100,-100,-100,0,0,100,0.00,40.00,13,8,0,0.00
2013-10-5,62,55,57,-100,-100,-100,0,0,100,0.00,40.00,16,11,0,0.00
2013-10-6,68,59,57,-100,-100,-100,0,0,100,0.00,40.00,16,9,0,0.00
2013-10-7,58,56,55,-100,-100,-100,0,0,100,0.00,40.00,13,8,0,0.00
2013-10-8,55,54,52,-100,-100,-100,0,0,100,0.00,40.00,18,10,0,0.00
2013-10-9,55,54,53,-100,-100,-100,0,0,100,0.00,40.00,20,12,0,0.00
2013-10-10,55,54,53,-100,-100,-100,0,0,100,0.00,40.00,16,9,0,0.00
2013-10-11,55,53,52,-100,-100,-100,0,0,100,0.00,40.00,18,9,0,0.00
2013-10-12,54,50,49,-100,-100,-100,0,0,100,0.00,40.00,22,12,0,0.00
2013-10-13,55,53,52,-100,-100,-100,0,0,100,0.00,40.00,11,7,0,0.00
2013-10-14,57,54,53,-100,-100,-100,0,0,100,0.00,40.00,13,9,0,0.00
2013-10-15,59,55,54,-100,-100,-100,0,0,100,0.00,40.00,11,8,0,0.00
2013-10-16,65,58,55,-100,-100,-100,0,0,100,0.00,40.00,16,8,0,0.00
2013-10-17,59,57,55,-100,-100,-100,0,0,100,0.00,40.00,16,10,0,0.00
2013-10-18,56,53,51,-100,-100,-100,0,0,100,0.00,40.00,18,10,0,0.00
2013-10-19,53,49,49,-100,-100,-100,0,0,100,0.00,40.00,18,9,0,0.00
2013-10-20,52,51,49,-100,-100,-100,0,0,100,0.00,40.00,16,9,0,0.00
2013-10-21,54,51,49,-100,-100,-100,0,0,100,0.00,40.00,16,8,0,0.00
2013-10-22,53,52,50,-100,-100,-100,0,0,100,0.00,40.00,9,7,0,0.00
2013-10-23,53,52,50,-100,-100,-100,0,0,100,0.00,40.00,13,9,0,0.00
2013-10-24,55,54,51,-100,-100,-100,0,0,100,0.00,40.00,16,8,0,0.00
2013-10-25,57,54,52,-100,-100,-100,0,0,100,0.00,40.00,16,10,0,0.00
2013-10-26,56,50,50,-100,-100,-100,0,0,100,0.00,40.00,16,10,0,0.00
2013-10-27,57,53,51,-100,-100,-100,0,0,100,0.00,40.00,22,11,0,0.00
2013-10-28,57,56,54,-100,-100,-100,0,0,100,0.00,40.00,25,16,0,0.00
2013-10-29,56,56,55,-100,-100,-100,0,0,100,0.00,40.00,16,10,0,0.00
2013-10-30,56,54,51,-100,-100,-100,0,0,100,0.00,40.00,18,11,0,0.00
2013-10-31,58,55,53,-100,-100,-100,0,0,100,0.00,40.00,18,11,0,0.00
2013-11-1,56,55,51,-100,-100,-100,0,0,100,0.00,40.00,13,10,0,0.00
2013-11-2,57,51,50,-100,-100,-100,0,0,100,0.00,40.00,25,16,0,0.00
2013-11-3,55,54,53,-100,-100,-100,0,0,100,0.00,40.00,25,15,0,0.00
2013-11-4,57,54,53,-100,-100,-100,0,0,100,0.00,40.00,22,14,0,0.00
2013-11-5,56,54,50,-100,-100,-100,0,0,100,0.00,40.00,13,8,0,0.00
2013-11-6,57,55,53,-100,-100,-100,0,0,100,0.00,40.00,16,9,0,0.00
2013-11-7,56,55,54,-100,-100,-100,0,0,100,0.00,40.00,16,10,0,0.00
2013-11-8,57,53,49,-100,-100,-100,0,0,100,0.00,40.00,18,11,0,0.00
2013-11-9,57,53,52,-100,-100,-100,0,0,100,0.00,40.00,16,9,0,0.00
2013-11-10,57,55,53,-100,-100,-100,0,0,100,0.00,40.00,11,7,0,0.00
2013-11-11,56,55,50,-100,-100,-100,0,0,100,0.00,40.00,18,9,0,0.00
2013-11-12,59,57,55,-100,-100,-100,0,0,100,0.00,40.00,18,10,0,0.00
2013-11-13,56,54,53,-100,-100,-100,0,0,100,0.00,40.00,22,11,0,0.00
2013-11-14,55,53,51,-100,-100,-100,0,0,100,0.00,40.00,27,15,0,0.00
2013-11-15,55,54,53,-100,-100,-100,0,0,100,0.00,40.00,29,19,0,0.00
2013-11-16,53,52,51,-100,-100,-100,0,0,100,0.00,40.00,16,13,0,0.00
2013-11-18,54,54,52,-100,-100,-100,0,0,100,0.00,40.00,7,5,0,0.00
2013-11-19,56,54,53,-100,-100,-100,0,0,100,0.00,40.00,13,8,0,0.00
2013-11-20,56,56,54,-100,-100,-100,0,0,100,0.00,40.00,16,12,0,0.00
2013-11-26,56,56,56,-100,-100,-100,0,0,100,30.17,30.15,16,14,0,0.00
2013-11-27,55,55,55,-100,-100,-100,0,0,100,29.93,29.93,11,11,0,0.00
2013-11-28,56,56,56,-100,-100,-100,0,0,100,30.05,30.05,4,4,0,0.00
2013-11-30,54,52,50,-100,-100,-100,0,0,100,30.19,30.17,11,9,0,0.00
2013-12-3,54,54,54,-100,-100,-100,0,0,100,29.97,29.97,7,7,0,0.00
2013-12-6,-200,0,200,-100,-100,-100,0,0,100,30.12,30.03,22,13,0,0.00
2013-12-27,57,56,56,-100,-100,-100,0,0,100,0.00,40.00,11,9,0,0.00
2013-12-29,56,56,55,-100,-100,-100,0,0,100,0.00,40.00,16,10,0,0.00
2014-1-1,54,53,52,-100,-100,-100,0,0,100,0.00,40.00,11,7,0,0.00
2014-1-2,56,55,53,-100,-100,-100,0,0,100,0.00,40.00,11,8,0,0.00